{"data":{"norad_id":64111,"intl_designator":"2025-110R","name":"STARLINK-34148","alt_names":[],"object_type":"PAYLOAD","status":"ACTIVE","operator":null,"country":"US","launch_date":"2025-05-23","launch_site_code":"AFWTR","launch_vehicle":null,"mission":null,"orbit_class":"UNKNOWN","rcs_meters":null,"size_class":null,"mass_kg":null,"dimensions":null,"purposes":["comms"],"wikipedia_slug":null,"has_3d_model":false,"image_url":null,"decayed_at":null,"tle_current":{"epoch":"2026-05-24T22:47:35.438208Z","epoch_age_seconds":69579,"freshness":"FRESH","line1":"1 64111U 25110R   26144.94971572  .00014324  00000+0  47226-3 0  9990","line2":"2 64111  53.1612  32.1599 0001084  88.0800 272.0325 15.31712978 57567","mean_motion":15.31712978,"eccentricity":0.0001084,"inclination_deg":53.1612,"raan_deg":32.1599,"arg_perigee_deg":88.08,"mean_anomaly_deg":272.0325,"bstar":0.00047226,"rev_number":5756,"period_min":94.012391399872,"perigee_km":469.95889468346,"apogee_km":471.44372282879,"semimajor_km":6848.8383087561,"source":"CELESTRAK","updated_at":"2026-05-25T13:38:20.267179Z"}}}